TimeCST,TemperatureF,Dew PointF,Humidity,Sea Level PressureIn,VisibilityMPH,Wind Direction,Wind SpeedMPH,Gust SpeedMPH,PrecipitationIn,Events,Conditions,WindDirDegrees,DateUTC
12:58 AM,53.6,44.6,72,30.33,10.0,SSE,3.5,-,N/A,,Overcast,160,2012-11-05 06:58:00
1:50 AM,53.6,44.6,72,30.33,10.0,Calm,Calm,-,N/A,,Overcast,0,2012-11-05 07:50:00
2:43 AM,51.8,44.6,76,30.33,10.0,Calm,Calm,-,N/A,,Overcast,0,2012-11-05 08:43:00
3:44 AM,51.8,44.6,76,30.31,10.0,NNE,4.6,-,N/A,,Overcast,30,2012-11-05 09:44:00
4:50 AM,51.8,42.8,71,30.31,10.0,ENE,8.1,-,N/A,,Overcast,70,2012-11-05 10:50:00
5:54 AM,48.2,42.8,82,30.31,10.0,NNE,6.9,-,N/A,,Overcast,30,2012-11-05 11:54:00
6:47 AM,46.4,42.8,87,30.33,6.0,NNE,8.1,-,N/A,,Mostly Cloudy,30,2012-11-05 12:47:00
7:45 AM,48.2,42.8,82,30.35,10.0,Calm,Calm,-,N/A,,Mostly Cloudy,0,2012-11-05 13:45:00
8:41 AM,53.6,44.6,72,30.36,10.0,East,11.5,-,N/A,,Mostly Cloudy,80,2012-11-05 14:41:00
9:40 AM,57.2,44.6,63,30.37,10.0,East,8.1,-,N/A,,Mostly Cloudy,100,2012-11-05 15:40:00
11:42 AM,66.2,44.6,46,30.35,10.0,ENE,9.2,-,N/A,,Mostly Cloudy,70,2012-11-05 17:42:00
12:50 PM,68.0,41.0,37,30.32,10.0,East,17.3,-,N/A,,Mostly Cloudy,80,2012-11-05 18:50:00
1:53 PM,68.0,35.6,30,30.28,10.0,East,17.3,-,N/A,,Mostly Cloudy,80,2012-11-05 19:53:00
2:45 PM,69.8,37.4,31,30.26,10.0,East,13.8,-,N/A,,Mostly Cloudy,80,2012-11-05 20:45:00
4:44 PM,69.8,35.6,28,30.25,10.0,NE,6.9,-,N/A,,Mostly Cloudy,50,2012-11-05 22:44:00
5:44 PM,66.2,33.8,30,30.26,10.0,ENE,8.1,-,N/A,,Mostly Cloudy,70,2012-11-05 23:44:00
6:41 PM,62.6,33.8,34,30.28,10.0,ENE,8.1,-,N/A,,Mostly Cloudy,60,2012-11-06 00:41:00
7:41 PM,59.0,33.8,39,30.30,10.0,ENE,5.8,-,N/A,,Mostly Cloudy,70,2012-11-06 01:41:00
8:41 PM,60.8,33.8,36,30.33,10.0,East,6.9,-,N/A,,Mostly Cloudy,80,2012-11-06 02:41:00
9:47 PM,53.6,33.8,47,30.35,10.0,ESE,4.6,-,N/A,,Mostly Cloudy,120,2012-11-06 03:47:00
10:46 PM,48.2,33.8,58,30.36,10.0,Calm,Calm,-,N/A,,Mostly Cloudy,0,2012-11-06 04:46:00
11:45 PM,50.0,33.8,54,30.36,10.0,Calm,Calm,-,N/A,,Mostly Cloudy,0,2012-11-06 05:45:00